Tracking 33165 objects as of 7-Feb-2026
HD Live streaming from Space Station
objects crossing your sky now

STARLINK-35919

Track STARLINK-35919 now!
10-day predictions
STARLINK-35919 is classified as:


NORAD ID: 66888
Int'l Code: 2025-283L
Perigee: 481.6 km
Apogee: 483.0 km
Inclination: 53.2 °
Period: 94.1 minutes
Semi major axis: 6853 km
RCS: Unknown
Launch date: December 4, 2025
Source: United States (US)
Launch site: AIR FORCE WESTERN TEST RANGE (AFWTR)
Your satellite tracking list
Your tracking list is empty




NASA's NSSDC Master Catalog

Two Line Element Set (TLE):
1 66888U 25283L   26038.58150866  .00031257  00000-0  10621-2 0  9994
2 66888  53.1591 164.0722 0001024 135.3206 224.7877 15.30227209 11236
Source of the keplerian elements: AFSPC